Weather History for Shannon, Ireland

Change the Weather History Date:

Tuesday, October 25, 2011

  Actual Average Record
Temperature  
Mean Temperature 48 °F -  
Max Temperature 55 °F 52 °F 63 °F (2013)
Min Temperature 42 °F 41 °F 35 °F (2003)
Degree Days  
Heating Degree Days 16    
Moisture  
Dew Point 46 °F    
Average Humidity 92    
Maximum Humidity 100    
Minimum Humidity 71    
Precipitation  
Precipitation 0.16 in 0.12 in - ()
Sea Level Pressure  
Sea Level Pressure 29.24 in    
Wind  
Wind Speed 3 mph ()    
Max Wind Speed 13 mph    
Max Gust Speed -    
Visibility 6.3 miles    
Events Rain    
Averages and records for this station are not official NWS values.
T = Trace of Precipitation, MM = Missing Value Source: Averaged Metar Reports

Daily Weather History Graph

Daily Weather History Graph

Search for Another Location

Airport:

Trip Planner

Search our weather history database for the weather conditions in past years. The results will help you decide how hot, cold, wet, or windy it might be!

Date:

Astronomy

Oct. 25, 2011 Rise Set
Actual Time 8:18 AM IST 6:19 PM IST
Civil Twilight 7:43 AM IST 6:55 PM IST
Nautical Twilight 7:03 AM IST 7:35 PM IST
Astronomical Twilight 6:23 AM IST 8:14 PM IST
Moon 6:27 AM IST (10/25) 5:15 PM IST (10/25)
Length of Visible Light 11h 11m
Length of Day
10h 01m
Waning Crescent, 3% of the Moon is Illuminated
Oct 25
Waning Crescent
Oct 26
New
Nov 2
First Quarter
Nov 10
Full
Nov 18
Last Quarter

Hourly Weather History & Observations

Time (IST) Temp. Windchill Dew Point Humidity Pressure Visibility Wind Dir Wind Speed Gust Speed Precip Events Conditions
12:00 AM 48.2 °F - 46.4 °F 93% 29.15 in 6.2 mi WNW 4.6 mph - N/A   Scattered Clouds
12:30 AM 48.2 °F - 46.4 °F 93% 29.15 in 6.2 mi West 2.3 mph - N/A   Mostly Cloudy
1:00 AM 48 °F - 47 °F 97% 29.17 in 16 mi Calm Calm - -   Partly Cloudy
1:00 AM 48.2 °F - 48.2 °F 100% 29.15 in 6.2 mi Calm Calm - N/A   Mostly Cloudy
1:30 AM 48.2 °F - 46.4 °F 93% 29.15 in 6.2 mi Calm Calm - N/A   Mostly Cloudy
2:00 AM 48.2 °F - 46.4 °F 93% 29.15 in 6.2 mi Calm Calm - N/A   Mostly Cloudy
2:30 AM 48.2 °F - 46.4 °F 93% 29.18 in 6.2 mi East 1.2 mph - N/A   Mostly Cloudy
3:00 AM 46.4 °F - 46.4 °F 100% 29.18 in 6.2 mi ENE 2.3 mph - N/A   Mostly Cloudy
3:30 AM 46.4 °F 45.2 °F 46.4 °F 100% 29.18 in 6.2 mi SSE 3.5 mph - N/A   Mostly Cloudy
4:00 AM 48.2 °F - 46.4 °F 93% 29.18 in 6.2 mi SW 3.5 mph - N/A   Mostly Cloudy
4:30 AM 46.4 °F - 46.4 °F 100% 29.18 in 6.2 mi ENE 1.2 mph - N/A   Mostly Cloudy
5:00 AM 46.4 °F - 46.4 °F 100% 29.18 in 6.2 mi NNE 1.2 mph - N/A   Mostly Cloudy
5:30 AM 46.4 °F - 46.4 °F 100% 29.18 in 6.2 mi Calm Calm - N/A   Mostly Cloudy
6:00 AM 46.4 °F - 46.4 °F 100% 29.18 in 6.2 mi NNE 1.2 mph - N/A   Mostly Cloudy
6:30 AM 46.4 °F - 46.4 °F 100% 29.18 in 6.2 mi Calm Calm - N/A   Mostly Cloudy
7:00 AM 46 °F - 46 °F 98% 29.20 in 9 mi NE 2.2 mph - -   Mist
7:00 AM 46.4 °F - 46.4 °F 100% 29.18 in 6.2 mi NE 2.3 mph - N/A   Mostly Cloudy
7:30 AM 46.4 °F - 46.4 °F 100% 29.21 in 6.2 mi Calm Calm - N/A   Mostly Cloudy
8:00 AM 46.4 °F - 46.4 °F 100% 29.21 in 6.2 mi SE 2.3 mph - N/A   Mostly Cloudy
8:30 AM 46.4 °F - 46.4 °F 100% 29.21 in 6.2 mi South 1.2 mph - N/A   Mostly Cloudy
9:00 AM 48.2 °F - 46.4 °F 93% 29.21 in 6.2 mi South 3.5 mph - N/A   Mostly Cloudy
9:30 AM 48.2 °F - 46.4 °F 93% 29.21 in 6.2 mi South 3.5 mph - N/A   Mostly Cloudy
10:00 AM 48.2 °F - 48.2 °F 100% 29.21 in 6.2 mi South 4.6 mph - N/A   Mostly Cloudy
10:30 AM 48.2 °F - 48.2 °F 100% 29.24 in 4.3 mi South 4.6 mph - N/A   Mostly Cloudy
11:00 AM 48.2 °F - 48.2 °F 100% 29.24 in 2.5 mi SSW 4.6 mph - N/A   Light Drizzle
11:30 AM 48.2 °F - 48.2 °F 100% 29.24 in 0.9 mi South 9.2 mph - N/A Rain Rain
12:00 PM 50.0 °F - 48.2 °F 94% 29.24 in 3.7 mi South 5.8 mph - N/A   Light Drizzle
12:30 PM 50.0 °F - 48.2 °F 94% 29.24 in 6.2 mi SSW 5.8 mph - N/A Rain Light Rain Showers
1:00 PM 52 °F - 48 °F 82% 29.26 in 12 mi WSW 4.5 mph - - Rain Light Rain Showers
1:00 PM 51.8 °F - 48.2 °F 88% 29.24 in 6.2 mi WSW 4.6 mph - N/A   Scattered Clouds
1:30 PM 51.8 °F - 48.2 °F 88% 29.24 in 6.2 mi SW 3.5 mph - N/A   Mostly Cloudy
2:00 PM 51.8 °F - 46.4 °F 82% 29.24 in 6.2 mi South 3.5 mph - N/A   Scattered Clouds
2:30 PM 55.4 °F - 46.4 °F 72% 29.24 in 6.2 mi SSE 4.6 mph - N/A   Scattered Clouds
3:00 PM 53.6 °F - 46.4 °F 77% 29.24 in 6.2 mi South 8.1 mph - N/A   Mostly Cloudy
3:30 PM 50.0 °F - 41.0 °F 71% 29.27 in 6.2 mi SSW 9.2 mph - N/A Rain Light Rain Showers
4:00 PM 50.0 °F - 46.4 °F 87% 29.27 in 6.2 mi SSW 4.6 mph - N/A   Scattered Clouds
4:30 PM 50.0 °F - 46.4 °F 87% 29.27 in 6.2 mi SW 4.6 mph - N/A   Partly Cloudy
5:00 PM 48.2 °F - 46.4 °F 93% 29.27 in 6.2 mi South 3.5 mph - N/A   Scattered Clouds
5:30 PM 50.0 °F - 44.6 °F 82% 29.27 in 6.2 mi South 12.7 mph - N/A Rain Light Rain Showers
6:00 PM 50.0 °F - 44.6 °F 82% 29.30 in 6.2 mi South 9.2 mph - N/A   Scattered Clouds
6:30 PM 48.2 °F - 44.6 °F 87% 29.30 in 6.2 mi South 8.1 mph - N/A   Partly Cloudy
7:00 PM 47 °F - 43 °F 81% 29.31 in 22 mi South 8.9 mph - -   Partly Cloudy
7:00 PM 46.4 °F 42.4 °F 42.8 °F 87% 29.30 in 6.2 mi South 8.1 mph - N/A   Partly Cloudy
7:30 PM 46.4 °F 44.3 °F 42.8 °F 87% 29.30 in 6.2 mi SSW 4.6 mph - N/A   Partly Cloudy
8:00 PM 46.4 °F 44.3 °F 42.8 °F 87% 29.33 in 6.2 mi SSE 4.6 mph - N/A   Scattered Clouds
8:30 PM 44.6 °F 41.4 °F 42.8 °F 93% 29.33 in 6.2 mi SSE 5.8 mph - N/A   Scattered Clouds
9:00 PM 44.6 °F 43.1 °F 41.0 °F 87% 29.33 in 6.2 mi SSE 3.5 mph - N/A   Scattered Clouds
9:30 PM 44.6 °F 41.4 °F 41.0 °F 87% 29.33 in 6.2 mi SSE 5.8 mph - N/A   Partly Cloudy
10:00 PM 42.8 °F 40.1 °F 41.0 °F 93% 29.33 in 6.2 mi SSE 4.6 mph - N/A   Partly Cloudy
10:30 PM 42.8 °F 38.6 °F 41.0 °F 93% 29.33 in 6.2 mi ESE 6.9 mph - N/A   Partly Cloudy
11:00 PM 42.8 °F 38.6 °F 41.0 °F 93% 29.36 in 6.2 mi SE 6.9 mph - N/A   Scattered Clouds
11:30 PM 42.8 °F 40.1 °F 41.0 °F 93% 29.36 in 6.2 mi SE 4.6 mph - N/A   Partly Cloudy